RH
31 31 31 32 35 36 37 38 39 39 38 35 32 31 31 32 34 35 34 32 30 29 28 27 24 22 22 21 21 21 21 19 17 15 13 14 13 12 11 11 11 10 10 9 9 8 9 10 11 11 11 11 10 10 11 11 10 10 14 17 20 23 20 18 19 19 19 18 17 15 13 12 11 11 11 12 12 12 13 12 13 14 15 16 16 16 17 17
31 31 31 31 34 36 37 38 38 37 36 33 30 30 32 33 34 33 31 29 27 26 26 23 21 20 19 18 19 19 19 17 14 13 12 12 11 11 11 10 10 10 9 9 8 8 8 9 9 9 9 9 9 10 11 10 10 11 14 17 20 22 18 16 17 16 16 16 14 12 10 9 10 10 10 13 15 14 15 14 13 15 15 15 16 16 17 16
32 31 31 33 34 35 37 38 37 35 33 31 30 31 33 33 32 29 26 26 25 24 22 19 17 18 17 16 17 17 16 14 11 11 11 10 11 11 10 10 10 10 10 9 9 9 8 8 8 8 8 7 8 10 10 10 11 11 13 16 19 18 17 16 16 15 15 13 10 10 9 9 10 10 11 15 17 17 18 17 15 16 16 17 17 18 18 17
32 32 32 33 34 34 36 36 35 35 33 30 30 31 31 29 27 25 24 24 23 21 19 17 16 15 15 14 13 12 12 12 10 10 10 10 10 10 10 10 9 10 9 9 8 8 8 7 7 8 8 8 8 9 10 11 11 12 14 16 16 16 18 16 13 13 13 10 9 10 11 11 11 11 12 15 17 18 18 17 16 16 17 17 18 18 18 17
32 31 32 33 34 34 34 35 36 36 33 30 30 29 26 25 24 24 23 21 19 17 16 16 15 14 12 11 10 10 12 12 10 10 10 10 10 10 10 9 8 7 6 7 6 6 7 6 7 7 8 10 11 11 11 10 10 12 13 13 13 14 16 13 10 10 10 10 11 11 12 12 12 12 13 14 18 19 17 16 16 15 15 16 16 17 17 17
32 31 32 33 34 34 35 37 37 34 30 28 26 24 23 23 22 21 19 17 16 15 14 13 12 11 10 10 9 9 11 12 10 10 10 9 9 9 8 7 7 6 5 5 5 5 6 6 6 7 9 11 13 13 11 9 10 13 13 11 11 12 11 10 9 10 10 11 12 12 12 12 13 13 13 14 17 18 17 17 16 15 15 15 15 16 17 18
33 33 33 34 35 37 38 37 33 28 26 25 23 23 22 20 18 17 16 15 14 13 12 10 9 9 10 11 11 9 10 11 10 10 9 8 8 7 7 7 8 7 6 4 4 6 6 6 7 7 9 12 12 11 10 9 9 13 14 10 9 9 9 10 10 11 12 11 12 12 12 13 14 15 14 15 17 17 18 17 16 15 15 15 16 17 18 18
35 36 36 37 38 38 35 30 26 25 24 24 23 21 19 16 15 15 14 13 12 11 10 9 8 9 10 12 13 11 9 10 9 9 8 7 7 5 6 7 8 8 6 5 5 6 6 7 8 8 11 12 10 11 11 10 13 16 15 10 9 10 11 11 12 14 14 12 12 12 13 13 14 14 14 15 17 17 18 18 17 16 15 15 16 17 17 17
34 37 37 37 35 32 27 24 24 25 24 23 21 18 15 15 14 13 12 11 10 9 8 8 8 9 11 12 11 10 8 8 7 8 7 7 7 5 5 6 7 7 6 5 6 7 7 8 9 9 11 10 9 11 11 14 18 17 15 11 10 12 12 13 14 16 14 12 13 13 13 13 13 13 15 16 16 16 17 17 17 16 15 15 16 16 16 16
32 34 34 32 29 26 24 24 25 24 21 19 17 15 15 13 12 10 9 9 8 9 9 10 9 9 10 8 7 8 7 7 7 7 7 7 7 6 5 6 6 6 6 7 7 7 8 9 10 10 12 11 10 12 11 15 18 15 14 13 12 13 13 13 15 16 14 14 14 14 14 14 13 14 16 16 15 15 16 17 17 15 15 16 16 16 16 16
31 31 29 27 25 25 25 24 22 18 16 15 15 14 12 10 8 8 8 8 8 9 10 11 10 8 7 5 5 7 6 6 7 7 7 8 8 6 5 5 5 6 6 8 9 9 10 10 10 11 13 13 13 12 11 14 16 13 14 15 16 15 13 15 16 16 16 17 16 15 16 15 14 16 17 16 16 16 16 17 17 16 16 17 17 17 17 18
30 28 27 26 26 25 23 20 16 14 14 14 14 11 9 8 8 8 9 9 9 9 9 8 8 6 5 5 6 6 6 6 7 8 8 8 8 7 6 6 6 6 7 7 9 10 10 11 11 12 13 13 16 16 15 15 17 16 16 19 23 19 15 17 17 17 19 19 18 17 19 18 17 17 16 16 17 18 18 19 19 18 18 18 19 20 20 20
29 28 27 27 25 22 18 16 14 14 14 13 10 8 8 9 9 9 9 9 8 6 7 8 8 7 5 5 6 6 6 6 7 7 8 8 9 8 7 8 7 7 7 8 9 10 10 11 11 12 11 13 17 17 17 17 17 16 17 21 27 25 19 16 17 19 20 20 20 20 21 19 19 19 17 18 20 20 21 22 22 21 20 20 21 22 22 22
28 28 27 25 22 19 16 15 15 14 12 10 8 8 9 9 9 9 7 7 7 6 7 8 9 7 5 6 6 6 6 6 6 7 8 9 10 9 9 9 8 9 9 9 11 11 11 11 9 10 10 13 15 15 20 23 20 17 21 27 28 22 18 16 17 20 21 22 21 22 23 18 19 21 19 20 21 22 24 24 24 23 22 23 23 24 24 23
28 27 25 22 19 17 16 15 14 12 11 9 9 10 10 9 9 8 6 6 5 6 7 7 7 6 5 6 6 6 6 6 6 6 7 8 9 10 10 10 9 10 11 11 12 12 13 12 10 10 10 11 14 19 26 27 23 21 21 26 26 19 17 18 17 19 21 23 20 21 25 22 20 22 21 22 23 24 26 26 26 24 24 25 25 25 26 26
26 24 21 18 16 15 15 14 12 10 9 10 10 10 9 7 7 6 6 5 5 6 7 6 6 5 6 6 6 6 6 6 7 7 7 8 9 9 9 10 10 11 12 12 12 12 13 13 12 12 12 13 15 24 31 26 24 26 21 21 23 20 21 22 18 18 20 21 20 22 25 23 21 23 23 24 25 26 27 27 27 27 27 27 28 29 30 31
22 19 16 15 14 14 13 11 10 10 10 11 10 9 8 7 5 5 5 6 7 7 7 7 7 7 6 6 7 7 7 8 7 7 8 9 9 9 10 10 11 11 13 13 12 11 11 12 13 12 13 15 16 22 27 23 22 26 26 25 26 25 26 26 20 19 20 22 23 23 25 24 23 25 24 25 26 26 27 28 29 31 32 31 32 34 35 36
17 15 13 13 13 12 10 9 10 10 10 9 9 7 6 6 6 5 6 6 6 6 7 7 8 9 7 7 8 8 8 8 8 8 9 9 10 10 10 11 12 12 13 13 12 11 11 11 12 13 15 17 18 20 21 21 21 25 27 28 29 30 30 28 22 19 20 22 25 26 27 26 25 25 24 25 28 28 29 31 31 32 34 35 36 38 40 42
13 12 12 12 12 10 9 10 10 10 9 8 7 6 5 4 5 5 5 5 6 7 8 7 7 9 8 8 9 8 9 9 8 9 9 9 10 11 11 12 13 13 14 15 14 13 13 14 15 16 17 18 19 20 19 18 20 23 26 28 32 34 34 31 23 20 23 24 26 29 28 25 25 26 26 27 30 32 33 34 34 35 38 39 40 42 45 48
11 12 12 12 10 10 10 9 9 8 8 7 7 7 6 5 6 6 6 5 6 7 8 8 8 8 8 9 9 9 9 9 9 9 10 10 10 11 12 12 12 14 17 18 18 15 15 18 19 17 18 18 17 19 18 17 18 22 26 31 37 37 33 28 22 21 25 26 25 26 25 24 27 29 29 32 33 34 36 37 38 40 43 44 46 49 51 53
12 12 12 11 10 10 9 7 7 6 6 6 7 8 8 8 8 9 8 7 7 7 7 7 8 8 9 10 11 11 10 10 10 9 10 11 11 12 12 13 15 15 17 18 18 16 16 19 20 17 17 18 19 21 20 18 20 22 27 33 35 33 27 22 22 24 26 27 25 24 25 27 30 32 33 35 36 37 37 40 44 46 47 49 52 55 56 58
13 12 12 11 9 8 7 6 6 6 5 6 6 6 7 8 8 8 9 9 9 8 8 8 8 9 10 11 12 13 12 11 11 11 11 11 12 14 13 16 19 18 19 20 21 21 19 18 18 17 19 21 22 23 22 21 21 23 29 33 31 28 24 21 23 24 26 29 27 26 27 29 33 37 39 38 36 37 39 42 47 49 51 53 56 58 58 59
13 12 11 9 8 7 6 6 6 6 6 6 6 6 8 9 10 11 10 9 10 10 9 9 10 10 11 12 12 13 13 13 13 13 13 12 13 15 15 18 22 21 22 23 23 24 22 18 18 19 21 21 20 23 25 24 23 24 28 31 29 27 27 25 24 24 28 32 31 30 30 32 37 42 43 41 37 38 42 46 49 51 54 56 57 58 58 60
11 10 9 8 7 6 6 6 7 7 7 8 8 8 9 10 12 13 12 11 11 11 10 10 10 11 12 12 13 14 14 13 14 15 14 14 14 15 16 19 22 22 23 24 24 24 22 18 19 21 22 19 18 23 26 24 24 26 27 28 28 27 29 29 28 28 28 31 35 37 35 34 37 42 45 44 42 43 46 49 52 53 54 56 58 60 61 61
10 9 7 7 6 6 7 8 8 8 8 9 9 8 9 9 10 11 13 15 14 11 12 11 10 12 13 13 13 14 14 14 14 15 15 14 14 16 17 18 20 21 24 26 26 26 23 20 21 24 24 23 22 21 22 24 26 28 30 28 28 30 31 30 30 32 32 32 36 43 48 43 35 37 47 48 46 48 51 53 56 57 58 60 61 62 62 63
8 7 6 7 7 7 8 10 9 8 10 10 8 10 10 9 10 10 14 21 19 13 12 12 11 13 14 14 13 14 16 15 14 15 15 15 15 17 18 18 19 21 23 26 25 24 23 24 27 28 27 27 25 21 21 25 27 28 30 30 30 32 33 32 32 36 39 37 36 45 56 50 33 33 45 48 49 53 56 59 60 61 63 64 65 66 66 66
8 7 8 9 9 9 9 10 10 9 10 9 9 10 9 10 11 10 16 25 21 13 13 14 13 14 15 15 14 15 17 16 15 16 15 16 15 16 19 21 22 23 24 26 27 25 24 27 31 32 30 28 25 22 23 26 28 28 30 32 33 34 35 35 34 38 40 37 40 49 52 46 35 35 44 47 52 60 63 66 67 66 68 68 69 70 68 68
9 9 10 9 9 9 9 9 9 9 10 9 9 10 10 12 11 13 22 23 16 13 15 15 13 14 15 15 15 16 17 16 17 17 15 15 16 16 20 22 23 26 27 26 25 24 25 26 30 33 31 28 25 24 25 27 29 30 33 35 36 38 38 36 36 40 39 38 46 49 46 47 41 35 47 56 60 67 69 69 70 69 70 70 70 70 68 67
9 9 9 8 9 8 8 9 8 9 9 8 9 10 10 10 11 20 25 18 14 16 17 15 14 15 16 16 17 17 17 18 18 18 16 16 16 17 21 21 22 26 27 24 23 24 25 25 29 33 30 28 28 27 27 28 31 33 36 36 35 38 36 35 38 38 36 43 52 47 42 52 48 38 54 69 70 73 74 72 71 67 67 69 68 68 67 66
9 9 8 8 8 8 8 8 8 9 9 8 9 10 10 11 18 27 23 14 16 18 16 16 16 16 19 20 20 18 18 19 18 19 19 18 18 18 21 21 21 27 29 27 27 27 26 26 30 32 29 27 28 26 26 29 31 33 35 34 32 34 33 33 37 35 35 44 51 44 41 51 55 51 60 70 71 73 73 70 67 64 64 65 65 67 67 65
8 8 7 8 7 8 8 8 8 9 8 9 9 9 11 15 22 26 18 13 19 19 17 20 20 20 23 23 21 20 21 20 18 21 22 22 22 22 23 22 23 29 30 29 31 31 29 28 30 31 28 27 26 25 28 32 34 34 36 35 32 32 33 33 35 37 40 43 42 41 41 47 55 61 65 69 68 68 68 66 64 63 64 65 67 67 64 59
7 7 7 7 7 7 7 6 8 8 8 9 10 10 17 21 19 18 17 16 18 19 19 21 23 24 25 25 22 21 23 22 19 21 24 26 28 27 27 26 26 26 24 26 28 29 30 29 28 29 27 26 26 26 31 36 37 37 37 38 41 44 44 43 44 45 44 42 39 41 45 45 49 60 68 68 66 65 66 66 66 68 69 67 66 63 59 57
6 6 7 7 7 6 6 6 7 7 8 9 9 12 20 22 15 14 18 18 16 18 20 22 26 27 25 24 23 22 24 23 21 21 22 25 29 29 29 29 29 24 22 27 28 27 31 31 29 28 27 26 27 29 33 35 38 40 39 42 50 57 63 66 62 57 51 45 41 44 50 51 52 60 67 66 66 68 68 68 69 69 69 67 63 59 55 51
6 6 6 5 5 5 6 7 7 7 9 9 12 18 19 16 14 15 18 19 19 22 23 24 27 26 24 21 22 23 23 22 22 23 25 26 28 29 30 30 29 28 28 30 28 27 30 30 28 28 29 29 30 33 36 39 42 44 42 46 53 57 69 77 72 65 61 53 47 48 53 57 58 61 68 70 70 70 68 68 69 69 69 66 60 53 45 38
5 5 5 5 5 5 6 7 7 8 9 9 15 23 20 13 14 18 20 23 24 23 25 26 26 24 24 23 24 23 21 22 24 25 27 30 29 29 30 30 29 30 31 30 28 29 31 31 30 31 34 33 32 35 40 43 46 46 46 52 55 55 62 71 68 63 64 65 59 53 55 56 54 58 67 73 72 67 67 67 68 69 67 61 52 44 39 37
5 5 5 5 6 6 7 7 7 10 10 9 14 20 19 16 17 20 22 24 24 24 26 27 25 25 26 27 26 24 22 23 25 24 25 29 31 30 31 31 29 30 31 31 31 34 35 35 33 34 37 35 33 37 43 44 46 50 50 50 51 55 60 69 71 62 64 72 64 55 59 57 54 60 66 69 68 63 62 65 67 68 63 53 47 44 43 41
5 5 6 7 7 7 8 8 8 10 8 10 16 18 17 18 20 24 26 25 25 26 26 25 23 22 24 26 26 25 24 24 24 22 22 26 29 30 33 32 29 29 32 33 35 37 39 38 35 36 36 33 33 38 42 45 48 52 54 50 53 60 63 70 77 70 69 76 66 55 61 62 64 72 69 63 64 61 62 67 68 64 57 50 48 46 45 43
7 7 7 8 8 8 9 8 9 9 7 13 22 20 19 22 22 25 27 25 27 27 24 23 22 20 22 25 26 26 24 25 25 22 21 25 27 30 34 34 30 31 34 35 35 37 39 39 39 40 37 34 37 41 44 47 49 51 53 54 61 69 71 71 76 76 80 84 75 61 59 62 69 76 73 68 67 66 67 70 67 62 56 51 48 45 43 40
8 8 7 9 9 8 8 9 8 7 8 17 24 20 21 26 25 24 25 26 28 26 22 23 23 23 24 24 25 26 25 25 25 23 22 24 26 30 34 33 32 33 35 38 38 38 39 41 42 42 39 37 38 41 45 48 51 51 50 53 63 73 75 73 72 76 83 86 83 75 66 65 71 74 75 74 70 69 71 70 66 60 54 50 46 42 41 39
9 9 7 8 9 8 8 7 7 10 15 19 23 22 22 25 25 23 24 26 26 23 22 24 24 25 26 25 26 27 25 24 24 23 24 26 26 30 34 35 36 37 37 39 40 39 39 42 44 41 39 38 39 43 46 48 51 54 53 58 68 72 72 74 73 73 77 82 87 91 81 69 71 74 73 73 71 70 69 66 63 57 49 44 39 38 41 41
9 9 7 7 8 8 7 8 10 16 21 22 23 24 24 24 25 23 23 25 25 23 23 24 25 26 26 26 28 27 25 25 25 23 25 26 26 28 32 35 38 40 41 40 40 39 39 44 47 45 41 38 39 43 47 50 52 54 57 62 68 73 75 81 80 72 72 77 85 97 93 76 73 75 70 70 71 69 65 62 59 51 44 38 32 35 42 43
8 9 8 6 7 7 7 12 15 18 23 23 23 24 24 24 24 23 23 24 25 25 23 24 26 27 26 25 28 28 25 25 27 25 25 28 29 29 31 34 35 38 42 42 41 40 41 46 48 46 44 40 40 44 47 51 50 51 57 61 64 71 75 81 83 78 79 79 78 88 89 75 72 73 68 69 72 68 62 60 55 47 38 31 29 34 40 43
7 8 7 6 7 6 8 15 19 20 22 22 21 22 24 24 23 23 25 25 25 25 24 24 24 25 26 26 27 29 25 23 26 25 25 31 31 29 31 33 32 33 38 40 40 40 43 46 44 40 37 34 37 41 44 48 49 48 54 59 63 70 72 74 78 83 91 90 83 87 83 69 67 69 68 70 70 63 57 54 50 43 34 29 30 36 39 42
6 6 6 6 7 6 9 15 19 21 21 20 21 23 23 23 23 26 27 25 25 26 25 25 24 24 26 27 28 28 25 22 23 23 24 30 32 30 30 31 32 33 34 38 39 41 44 46 46 48 46 40 39 42 43 45 47 49 55 59 64 68 70 72 74 83 96 92 84 89 85 67 64 68 68 68 65 57 52 49 46 39 33 31 33 36 38 44
6 5 5 6 5 6 10 13 16 22 23 21 22 23 23 22 21 25 26 23 23 25 24 24 24 24 27 28 28 29 26 21 22 24 26 30 33 32 29 29 32 34 36 40 42 45 50 50 51 56 60 59 58 58 56 52 50 52 56 58 62 66 69 72 75 84 93 87 81 87 84 70 65 67 66 64 60 54 49 45 41 39 36 35 35 34 39 46
7 8 8 7 5 6 8 8 11 18 22 23 21 21 23 24 21 22 24 22 22 23 24 25 25 25 27 28 28 28 25 23 24 26 27 30 32 31 29 31 34 35 38 41 41 46 54 53 50 52 57 61 62 59 58 58 57 58 56 55 62 70 71 74 78 82 84 82 78 77 79 78 73 70 69 65 58 52 46 42 39 40 40 38 36 38 43 48
7 10 11 10 7 8 11 11 12 15 17 20 21 20 22 24 24 22 23 23 22 22 24 25 26 27 27 28 29 28 26 26 26 26 26 29 31 30 31 34 34 33 35 36 38 44 50 50 49 51 54 57 57 56 57 59 60 58 56 57 64 70 70 71 77 77 77 81 76 67 73 81 75 71 71 66 60 53 45 40 40 42 44 41 38 42 46 46
7 10 11 11 10 13 15 14 13 15 16 19 22 22 22 24 24 24 24 23 23 23 25 26 29 30 28 27 28 28 27 26 27 29 29 29 31 33 34 34 33 31 32 35 39 44 49 52 51 50 53 56 56 56 56 56 55 53 54 56 60 65 67 68 72 73 75 81 79 72 76 79 72 67 64 60 59 53 44 39 40 43 45 41 40 43 45 44
7 8 9 9 10 12 15 14 14 16 18 21 23 23 23 24 23 24 26 26 25 25 24 26 30 32 31 29 27 26 26 24 25 30 31 30 33 35 35 35 36 34 34 39 42 44 48 53 52 51 54 56 55 55 55 54 51 50 52 55 56 60 63 63 66 71 75 78 79 79 79 73 65 62 59 56 54 46 39 38 40 42 43 41 43 46 46 46
6 6 6 8 9 10 12 13 16 20 21 22 22 22 24 25 25 26 27 27 27 27 25 26 30 32 31 30 28 27 29 28 27 31 33 32 34 37 37 37 39 38 39 43 46 44 45 50 52 53 55 55 52 52 52 52 51 51 53 54 55 57 60 62 67 73 78 80 79 80 78 68 57 56 58 54 46 39 37 40 41 41 42 44 46 47 46 48
5 4 4 7 10 11 11 12 16 23 25 25 25 24 25 28 27 27 27 26 26 28 27 26 30 33 32 29 30 32 33 33 33 33 33 32 34 36 37 37 38 41 43 46 48 48 49 51 52 55 57 55 52 51 51 49 49 53 58 57 54 58 64 71 75 77 80 83 82 80 77 68 57 55 53 46 40 39 40 42 44 44 46 50 51 49 48 50
5 5 4 7 11 12 13 15 19 22 22 24 27 26 25 27 27 25 25 26 25 25 25 26 28 31 31 28 29 31 30 31 34 33 31 31 31 33 34 33 35 40 43 46 49 51 54 54 53 58 60 55 50 51 54 53 53 59 64 61 59 63 70 74 77 76 76 81 85 82 74 63 54 49 46 41 40 42 43 46 50 53 55 58 56 53 54 53